(259) Aletheia
ephemeris date magn radius delta ra dec elong phase
Opposition31 May 202511.42.727 AU1.715 AU16h38m-17°07'175.0°1.8°
Today2 Jul 202512.02.727 AU1.831 AU16h14m-18°33'145.0°12.3°
(259) Aletheia - 2025-07-02
astro.vanbuitenen.nl


 
-1 year
-1 month
-1 day
Now
+1 day
+1 month
+1 year

The interactive orbit chart above shows the body's path through the solar system and its position at the given date. Green and blue lines are shown perpendicular to the ecliptic plane: Green if the path is above the ecliptic plane, blue if it is below. (Left-click and drag to rotate the view; Right-click and drag to move the view; Use scroll wheel to zoom in our out.)

The orbital elements of Aletheia are:

            e (Eccentricity)                : 0.1299188
            a (Semimajor axis)              : 3.1334338
            i (Inclination)                 : 10.80855
            Ω (Longitude of ascending node) : 86.78079
            ω (Argument of perihelion)      : 166.37237
            M (Mean anomaly)                : 352.85984
            Epoch                           : 2025 May 05

            L (Longitude of perihelion)     : 73.38614
            B (Latitude of perihelion)      : 2.53236
            P (Orbital period in years)     : 5.55            
        

The light curve chart below shows the estimated development of the minor planet's magnitude.


The all-sky chart below shows the path of the minor planet over the same period as the light curve. The current position is marked yellow.





The following chart shows the path of the minor planet in the next few days. The field of view is optimized for (~10x50) binoculars and finderscopes. A more printer-friendly version of the same chart can be found below.




Ephemerides:
Date       Time       RA (2000)    DEC (2000)    delta   radius  elong  phase   PA    magn
2025-07-02 00:00 UT   16 14 49.8   -18 33 48     1.831    2.727  145.0   12.3   104   12.0 
2025-07-02 04:19 UT   16 14 44.7   -18 34 24     1.833    2.727  144.8   12.4   104   12.1 
2025-07-03 00:00 UT   16 14 22.1   -18 37 10     1.839    2.727  144.0   12.7   104   12.1 
2025-07-04 00:00 UT   16 13 55.8   -18 40 34     1.846    2.727  142.9   13.0   104   12.1 
2025-07-05 00:00 UT   16 13 30.9   -18 44 01     1.854    2.727  141.9   13.3   103   12.1 
2025-07-06 00:00 UT   16 13 07.5   -18 47 30     1.862    2.728  140.9   13.6   103   12.1 
2025-07-07 00:00 UT   16 12 45.7   -18 51 01     1.871    2.728  139.9   13.9   103   12.2 
2025-07-08 00:00 UT   16 12 25.3   -18 54 35     1.879    2.728  138.8   14.2   103   12.2 
2025-07-09 00:00 UT   16 12 06.4   -18 58 10     1.888    2.728  137.8   14.5   103   12.2 
2025-07-10 00:00 UT   16 11 49.0   -19 01 48     1.897    2.728  136.8   14.8   103   12.2 
2025-07-11 00:00 UT   16 11 33.2   -19 05 29     1.906    2.728  135.8   15.0   102   12.2 
2025-07-12 00:00 UT   16 11 18.9   -19 09 11     1.915    2.728  134.8   15.3   102   12.3 
2025-07-13 00:00 UT   16 11 06.2   -19 12 56     1.924    2.728  133.8   15.6   102   12.3 
2025-07-14 00:00 UT   16 10 55.0   -19 16 43     1.934    2.729  132.9   15.8   102   12.3 
2025-07-15 00:00 UT   16 10 45.3   -19 20 31     1.943    2.729  131.9   16.1   102   12.3 
2025-07-16 00:00 UT   16 10 37.2   -19 24 22     1.953    2.729  130.9   16.3   102   12.3 
2025-07-17 00:00 UT   16 10 30.7   -19 28 16     1.963    2.729  129.9   16.6   102   12.4 
2025-07-18 00:00 UT   16 10 25.7   -19 32 11     1.973    2.729  129.0   16.8   102   12.4 
2025-07-19 00:00 UT   16 10 22.2   -19 36 08     1.983    2.729  128.0   17.1   102   12.4 
2025-07-20 00:00 UT   16 10 20.4   -19 40 07     1.994    2.730  127.1   17.3   102   12.4 
2025-07-21 00:00 UT   16 10 20.1   -19 44 08     2.004    2.730  126.1   17.5   101   12.4 
2025-07-22 00:00 UT   16 10 21.3   -19 48 12     2.015    2.730  125.2   17.7   101   12.4 
2025-07-23 00:00 UT   16 10 24.2   -19 52 17     2.026    2.730  124.3   17.9   101   12.5 
2025-07-24 00:00 UT   16 10 28.6   -19 56 24     2.037    2.730  123.4   18.1   101   12.5 
2025-07-25 00:00 UT   16 10 34.5   -20 00 33     2.048    2.731  122.4   18.3   101   12.5 
2025-07-26 00:00 UT   16 10 42.0   -20 04 43     2.059    2.731  121.5   18.5   101   12.5 
2025-07-27 00:00 UT   16 10 51.0   -20 08 56     2.070    2.731  120.6   18.7   101   12.5 
2025-07-28 00:00 UT   16 11 01.6   -20 13 10     2.082    2.731  119.7   18.8   101   12.6 
2025-07-29 00:00 UT   16 11 13.7   -20 17 25     2.093    2.732  118.8   19.0   101   12.6 
2025-07-30 00:00 UT   16 11 27.4   -20 21 43     2.105    2.732  117.9   19.2   101   12.6 
2025-07-31 00:00 UT   16 11 42.5   -20 26 02     2.117    2.732  117.0   19.3   101   12.6 
2025-08-01 00:00 UT   16 11 59.1   -20 30 22     2.128    2.732  116.2   19.5   101   12.6 


    Terminology:
            
    delta:  distance between minor planet and earth in AU
    radius: distance between minor planet and sun in AU
    magn:   magnitude (brightness) estimate    
    ra:     right ascension in hours (24h = 360deg)
    dec:    declination in degrees
    elong:  elongation in degrees (angle sun-earth-minor planet)    
    phase:  phase angle in degrees (angle sun-minor planet-earth)        
    AU:     Astronomical Unit (mean distance between earth and sun: 149597870.7 km
    

Orbital elements provided by the MPC (Minor Planet Center).
Calculations by a modified version of AAPlus, a C# implementation of the AA+ project by PJ Naughter from the algorithms presented in the book "Astronomical Algorithms" by Jean Meeus.
NGC2000 dso catalog and star labels from VizieR as provided by the Strasbourg astronomical Data Center.
Tycho2 catalog from the ESO archive.